GW3775 Weather Reports


time (UTC)temp
C
wind
direction
speed
KPH
gust
KPH
rain 1hr
cm
rain 24hr
cm
rain mn
cm
humidity
%
barometer
mb
20260507003056 11 133 1.6 6.4 0.00 0.08 0.00 91 1014.2
20260507002548 11 351 0.0 6.4 0.00 0.08 0.00 91 1014.3
20260507002051 11 240 1.6 4.8 0.00 0.08 0.00 91 1014.3
20260507001613 11 205 1.6 6.4 0.00 0.08 0.00 91 1014.4
20260507001051 11 303 1.6 6.4 0.00 0.08 0.00 91 1014.4
20260507000551 11 299 3.2 8.0 0.00 0.08 0.00 91 1014.5
20260507000059 11 351 3.2 9.7 0.00 0.08 0.00 90 1014.7
20260506235549 11 305 4.8 9.7 0.00 0.08 0.00 91 1014.5
20260506235052 12 271 3.2 8.0 0.00 0.08 0.00 91 1014.6
20260506234602 12 341 0.0 4.8 0.00 0.08 0.00 91 1014.7
20260506234048 12 295 1.6 4.8 0.00 0.08 0.00 91 1014.6
20260506233652 12 287 0.0 6.4 0.00 0.08 0.00 91 1014.7
20260506232048 12 4 1.6 6.4 0.00 0.08 0.00 91 1014.7
20260506231558 12 205 1.6 3.2 0.00 0.08 0.00 91 1014.8
20260506231048 12 0 0.0 3.2 0.00 0.08 0.00 90 1014.7
20260506230550 12 0 0.0 3.2 0.00 0.08 0.00 90 1014.8
20260506230058 12 343 0.0 4.8 0.00 0.08 0.00 90 1014.6
20260506225550 12 0 1.6 4.8 0.00 0.08 0.00 90 1014.6
20260506225048 12 278 0.0 4.8 0.00 0.08 0.00 90 1014.7
20260506224552 12 29 1.6 6.4 0.00 0.08 0.00 90 1014.9
20260506224048 12 12 1.6 6.4 0.00 0.08 0.00 89 1015.0
20260506223551 12 34 1.6 6.4 0.00 0.08 0.00 89 1014.9
20260506223055 12 25 1.6 4.8 0.00 0.08 0.00 89 1015.1
20260506222549 12 41 0.0 4.8 0.00 0.08 0.00 89 1014.9
20260506222052 12 75 0.0 6.4 0.00 0.08 0.00 89 1014.9
20260506221602 12 74 1.6 9.7 0.00 0.08 0.00 88 1014.9
20260506221049 12 152 1.6 9.7 0.00 0.08 0.00 88 1014.8
20260506220549 12 270 4.8 8.0 0.00 0.08 0.00 87 1014.7
20260506220107 12 332 3.2 8.0 0.00 0.08 0.00 87 1014.9
20260506215548 12 36 1.6 8.0 0.00 0.08 0.08 86 1014.9
20260506215049 12 100 1.6 8.0 0.00 0.08 0.08 86 1014.9
20260506214557 12 78 0.0 6.4 0.00 0.08 0.08 86 1014.9
20260506214049 12 43 0.0 3.2 0.00 0.08 0.08 86 1014.8
20260506213550 12 162 0.0 3.2 0.00 0.08 0.08 86 1014.7
20260506213106 12 0 0.0 1.6 0.00 0.08 0.08 86 1014.9
20260506212549 12 0 0.0 4.8 0.00 0.08 0.08 86 1015.1
20260506212052 12 69 0.0 8.0 0.00 0.08 0.08 86 1015.1
20260506211557 12 61 0.0 8.0 0.00 0.08 0.08 86 1014.9
20260506211049 12 86 1.6 8.0 0.00 0.08 0.08 86 1014.9
20260506210551 12 69 1.6 4.8 0.00 0.08 0.08 86 1014.7
20260506210100 12 54 0.0 3.2 0.00 0.08 0.08 86 1014.6
20260506205549 12 0 0.0 3.2 0.00 0.08 0.08 86 1014.7
20260506205051 12 71 1.6 4.8 0.00 0.08 0.08 85 1014.6
20260506204555 12 0 0.0 6.4 0.00 0.08 0.08 85 1014.6
20260506204051 12 87 0.0 6.4 0.00 0.08 0.08 85 1014.4
20260506203549 12 29 3.2 6.4 0.00 0.08 0.08 85 1014.1
20260506203139 12 69 0.0 6.4 0.00 0.08 0.08 85 1014.1
20260506202552 12 69 1.6 6.4 0.00 0.08 0.08 84 1014.2
20260506202049 12 80 0.0 4.8 0.00 0.08 0.08 85 1014.3
20260506201653 12 0 0.0 4.8 0.00 0.08 0.08 84 1014.3
20260506200056 13 82 1.6 4.8 0.00 0.08 0.08 85 1013.8
20260506195548 12 36 1.6 4.8 0.00 0.08 0.08 85 1013.8
20260506195049 13 87 1.6 4.8 0.00 0.08 0.08 86 1013.9
20260506194555 13 61 0.0 4.8 0.00 0.08 0.08 86 1013.7
20260506194050 13 0 1.6 4.8 0.00 0.08 0.08 87 1013.7
20260506193552 13 69 1.6 4.8 0.00 0.08 0.08 87 1013.6
20260506193056 13 64 1.6 3.2 0.00 0.08 0.08 88 1013.4
20260506192549 13 127 0.0 3.2 0.00 0.08 0.08 88 1013.5
20260506192051 13 0 0.0 4.8 0.00 0.08 0.08 88 1013.4
20260506191559 13 103 1.6 4.8 0.00 0.08 0.08 88 1013.3
20260506191052 13 0 0.0 3.2 0.00 0.08 0.08 88 1013.4
20260506190549 13 317 0.0 6.4 0.00 0.08 0.08 88 1013.3
20260506190056 13 313 1.6 6.4 0.00 0.08 0.08 87 1013.4
20260506185552 13 0 0.0 9.7 0.00 0.08 0.08 88 1013.4
20260506185049 13 285 4.8 9.7 0.00 0.08 0.08 87 1013.4
20260506184601 13 299 3.2 6.4 0.00 0.08 0.08 87 1013.3
20260506184052 13 150 1.6 4.8 0.00 0.08 0.08 87 1013.3
20260506183549 13 244 0.0 4.8 0.00 0.08 0.08 87 1013.1
20260506183101 13 154 0.0 4.8 0.00 0.08 0.08 86 1013.0
20260506182548 13 81 0.0 4.8 0.00 0.08 0.08 86 1013.0
20260506182048 13 22 1.6 4.8 0.00 0.08 0.08 85 1013.1
20260506181600 13 38 3.2 6.4 0.00 0.08 0.08 85 1013.0
20260506181049 13 48 1.6 6.4 0.00 0.08 0.08 84 1013.1
20260506180552 13 0 0.0 8.0 0.00 0.08 0.08 84 1012.8
20260506180054 13 308 3.2 9.7 0.00 0.08 0.08 83 1013.0
20260506175548 13 314 4.8 12.9 0.00 0.08 0.08 83 1012.8
20260506175052 13 287 4.8 12.9 0.00 0.08 0.08 83 1012.8
20260506174605 13 293 6.4 12.9 0.00 0.08 0.08 83 1012.9
20260506174052 13 323 4.8 9.7 0.00 0.08 0.08 84 1013.0
20260506173549 13 309 3.2 14.5 0.00 0.08 0.08 83 1012.9
20260506173057 13 142 4.8 14.5 0.00 0.08 0.08 83 1012.9
20260506172551 13 304 6.4 14.5 0.03 0.08 0.08 82 1013.0
20260506172048 13 292 3.2 17.7 0.05 0.08 0.08 83 1012.9
20260506171611 13 327 3.2 17.7 0.08 0.08 0.08 86 1012.9
20260506171052 13 339 8.0 17.7 0.08 0.08 0.08 85 1013.1
20260506170553 13 288 8.0 24.1 0.08 0.08 0.08 85 1012.7
20260506170104 13 301 11.3 24.1 0.08 0.08 0.08 85 1012.9
20260506170037 13 289 12.9 24.1 0.08 0.08 0.08 86 1012.9
20260506165049 13 297 8.0 17.7 0.08 0.08 0.08 86 1012.9
20260506164559 13 62 6.4 17.7 0.08 0.08 0.08 86 1012.8
20260506164048 13 306 8.0 20.9 0.08 0.08 0.08 86 1012.8
20260506163548 13 313 11.3 20.9 0.05 0.05 0.05 86 1012.7
20260506163131 13 197 8.0 20.9 0.05 0.05 0.05 85 1013.0
20260506162548 13 285 9.7 22.5 0.03 0.03 0.03 84 1012.7
20260506162053 14 288 14.5 25.7 0.00 0.00 0.00 81 1012.7
20260506161552 14 306 14.5 25.7 0.00 0.00 0.00 80 1012.5
20260506161048 15 314 11.3 25.7 0.00 0.00 0.00 78 1012.6
20260506160548 15 302 11.3 22.5 0.00 0.00 0.00 76 1012.5
20260506160051 16 294 12.9 20.9 0.00 0.00 0.00 73 1012.4
20260506155849 16 296 12.9 20.9 0.00 0.00 0.00 70 1012.4
20260506155049 16 30 8.0 17.7 0.00 0.00 0.00 66 1012.4
20260506154558 17 200 4.8 16.1 0.00 0.00 0.00 64 1012.3
20260506154053 17 285 6.4 20.9 0.00 0.00 0.00 63 1012.5
20260506153549 17 15 12.9 20.9 0.00 0.00 0.00 60 1012.4
20260506153121 18 11 9.7 19.3 0.00 0.00 0.00 59 1012.3
20260506152555 18 321 11.3 19.3 0.00 0.00 0.00 57 1012.2
20260506152049 19 349 11.3 19.3 0.00 0.00 0.00 56 1012.2
20260506151555 20 8 4.8 17.7 0.00 0.00 0.00 55 1012.2
20260506151048 20 114 6.4 17.7 0.00 0.00 0.00 55 1012.2
20260506150548 20 98 4.8 12.9 0.00 0.00 0.00 54 1012.2
20260506150055 20 74 4.8 12.9 0.00 0.00 0.00 53 1012.2
20260506145551 20 56 3.2 11.3 0.00 0.00 0.00 56 1012.2
20260506145050 20 47 4.8 11.3 0.00 0.00 0.00 55 1012.1
20260506144555 19 60 1.6 14.5 0.00 0.00 0.00 57 1012.0
20260506144049 19 93 4.8 14.5 0.00 0.00 0.00 56 1012.3
20260506143550 19 131 4.8 16.1 0.00 0.00 0.00 58 1012.6
20260506143053 19 20 8.0 16.1 0.00 0.00 0.00 59 1012.4
20260506142549 18 57 9.7 16.1 0.00 0.00 0.00 61 1012.4
20260506142048 18 88 6.4 14.5 0.00 0.00 0.00 62 1012.6
20260506141554 18 17 6.4 14.5 0.00 0.00 0.00 61 1012.8
20260506141049 18 350 3.2 11.3 0.00 0.00 0.00 59 1012.9
20260506140551 19 19 3.2 8.0 0.00 0.00 0.00 57 1012.9
20260506140053 19 30 1.6 16.1 0.00 0.00 0.00 56 1012.6
20260506135548 19 41 4.8 16.1 0.00 0.00 0.00 53 1012.7
20260506135048 20 9 4.8 16.1 0.00 0.00 0.00 54 1012.6
20260506134600 19 336 1.6 11.3 0.00 0.00 0.00 53 1012.8
20260506134048 18 11 1.6 11.3 0.00 0.00 0.00 53 1012.7
20260506133547 18 34 4.8 11.3 0.00 0.00 0.00 55 1012.9
20260506133056 18 64 6.4 11.3 0.00 0.00 0.00 55 1013.0
20260506132550 18 36 6.4 11.3 0.00 0.00 0.00 56 1013.1
20260506132049 18 19 4.8 11.3 0.00 0.00 0.00 55 1013.1
20260506131601 18 351 3.2 11.3 0.00 0.00 0.00 53 1013.1
20260506131049 18 48 4.8 11.3 0.00 0.00 0.00 53 1013.2
20260506130550 18 81 4.8 9.7 0.00 0.00 0.00 54 1013.1
20260506130548 19 29 4.8 8.0 0.00 0.00 0.00 53 1013.0
20260506125151 20 29 3.2 8.0 0.00 0.00 0.00 52 1013.3
20260506122549 20 121 0.0 6.4 0.00 0.00 0.00 50 1013.4
20260506122049 20 201 1.6 4.8 0.00 0.00 0.00 48 1013.4
20260506121608 20 156 0.0 8.0 0.00 0.00 0.00 48 1013.4
20260506121048 19 53 0.0 8.0 0.00 0.00 0.00 47 1013.6
20260506120550 19 84 1.6 8.0 0.00 0.00 0.00 49 1013.6
20260506120059 18 112 1.6 6.4 0.00 0.00 0.00 53 1013.7
20260506115549 18 35 0.0 8.0 0.00 0.00 0.00 55 1013.8
20260506115049 18 260 0.0 8.0 0.00 0.00 0.00 54 1013.8
20260506114557 18 329 3.2 9.7 0.00 0.00 0.00 55 1014.0
20260506114048 18 34 4.8 9.7 0.00 0.00 0.00 55 1014.0
20260506113548 18 56 0.0 8.0 0.00 0.00 0.00 55 1013.9
20260506113053 18 188 1.6 14.5 0.00 0.00 0.00 56 1014.1
20260506112548 18 0 1.6 14.5 0.00 0.00 0.00 58 1014.0
20260506112048 18 53 6.4 14.5 0.00 0.00 0.00 55 1014.1
20260506111548 18 301 0.0 8.0 0.00 0.00 0.00 55 1014.2
20260506111053 18 303 3.2 11.3 0.00 0.00 0.00 54 1014.0
20260506110548 18 351 4.8 27.4 0.00 0.00 0.00 58 1014.2
20260506105549 18 353 4.8 27.4 0.00 0.00 0.00 63 1014.3
20260506105049 18 251 3.2 11.3 0.00 0.00 0.00 63 1014.5
20260506104557 17 358 4.8 11.3 0.00 0.00 0.00 62 1014.4
20260506104048 17 171 4.8 19.3 0.00 0.00 0.00 63 1014.4
20260506103549 17 237 3.2 19.3 0.00 0.00 0.00 67 1014.3
20260506103056 16 308 4.8 12.9 0.00 0.00 0.00 67 1014.4
20260506102549 16 297 3.2 12.9 0.00 0.00 0.00 66 1014.5
20260506102049 16 287 4.8 12.9 0.00 0.00 0.00 66 1014.6
20260506101609 16 346 6.4 14.5 0.00 0.00 0.00 66 1014.5
20260506101049 16 315 4.8 14.5 0.00 0.00 0.00 65 1014.6
20260506100549 16 303 4.8 14.5 0.00 0.00 0.00 65 1014.5
20260506100050 16 285 3.2 14.5 0.00 0.00 0.00 66 1014.6
20260506095548 16 164 4.8 16.1 0.00 0.00 0.00 68 1014.6
20260506095049 16 296 4.8 16.1 0.00 0.00 0.00 69 1014.7
20260506094557 16 54 8.0 16.1 0.00 0.00 0.00 70 1014.6
20260506094048 16 101 6.4 17.7 0.00 0.00 0.00 69 1014.7
20260506093552 16 161 6.4 17.7 0.00 0.00 0.00 73 1014.6
20260506093058 16 300 6.4 12.9 0.00 0.00 0.00 71 1014.5
20260506092549 16 296 4.8 11.3 0.00 0.00 0.00 70 1014.5
20260506092050 16 19 3.2 12.9 0.00 0.00 0.00 71 1014.4
20260506091552 16 61 4.8 12.9 0.00 0.00 0.00 72 1014.5
20260506091053 15 355 4.8 14.5 0.00 0.00 0.00 73 1014.3
20260506090548 15 306 4.8 14.5 0.00 0.00 0.00 72 1014.4
20260506085548 15 239 4.8 12.9 0.00 0.00 0.00 75 1014.3
20260506085049 15 301 3.2 11.3 0.00 0.00 0.00 75 1014.3
20260506084557 15 45 3.2 12.9 0.00 0.00 0.00 77 1014.3
20260506084049 14 10 4.8 12.9 0.00 0.00 0.00 77 1014.2
20260506083548 14 33 4.8 11.3 0.00 0.00 0.00 77 1014.3
20260506083053 14 158 3.2 12.9 0.00 0.00 0.00 78 1014.3
20260506082548 14 55 3.2 12.9 0.00 0.00 0.00 79 1014.3
20260506082047 13 109 3.2 11.3 0.00 0.00 0.00 79 1014.4
20260506081603 13 17 3.2 14.5 0.00 0.00 0.00 81 1014.3
20260506081054 13 315 4.8 14.5 0.00 0.00 0.00 81 1014.3
20260506080549 13 35 1.6 12.9 0.00 0.00 0.00 82 1014.3
20260506073054 13 8 1.6 12.9 0.00 0.00 0.00 84 1014.2
20260506072548 13 168 3.2 12.9 0.00 0.00 0.00 85 1014.3
20260506072050 12 37 1.6 11.3 0.00 0.00 0.00 85 1014.1
20260506071552 12 11 1.6 8.0 0.00 0.00 0.00 86 1014.1
20260506071048 12 318 4.8 8.0 0.00 0.00 0.00 85 1014.1
20260506070549 12 62 1.6 11.3 0.00 0.00 0.00 87 1014.1
20260506062050 10 0 0.0 0.0 0.00 0.00 0.00 92 1014.3
20260506061744 10 0 0.0 0.0 0.00 0.00 0.00 91 1014.2
20260506061048 10 0 0.0 1.6 0.00 0.00 0.00 92 1014.2
20260506060549 10 0 0.0 1.6 0.00 0.00 0.00 91 1014.3
20260506051051 10 195 4.8 9.7 0.00 0.00 0.00 90 1013.8
20260506050549 10 182 3.2 6.4 0.00 0.00 0.00 91 1013.6
20260506050115 10 172 0.0 4.8 0.00 0.00 0.00 90 1013.8
20260506043054 10 195 3.2 8.0 0.00 0.00 0.00 92 1013.8
20260506042549 10 157 3.2 8.0 0.00 0.00 0.00 92 1013.6
20260506042050 10 178 1.6 8.0 0.00 0.00 0.00 92 1013.8
20260506041603 9 228 1.6 6.4 0.00 0.00 0.00 92 1013.6
20260506041048 9 169 0.0 6.4 0.00 0.00 0.00 93 1013.7
20260506040549 9 209 0.0 8.0 0.00 0.00 0.00 93 1013.8
20260506040057 9 209 1.6 8.0 0.00 0.00 0.00 93 1013.7
20260506035547 9 183 1.6 6.4 0.00 0.00 0.00 94 1013.7
20260506035049 8 199 1.6 4.8 0.00 0.00 0.00 94 1013.7
20260506034555 8 183 1.6 3.2 0.00 0.00 0.00 93 1013.7
20260506034049 8 183 0.0 3.2 0.00 0.00 0.00 93 1013.7
20260506033611 8 0 0.0 3.2 0.00 0.00 0.00 93 1013.7
20260506033050 8 0 0.0 1.6 0.00 0.00 0.00 93 1013.7
20260506032548 7 0 0.0 0.0 0.00 0.00 0.00 92 1013.8
20260506032049 8 0 0.0 0.0 0.00 0.00 0.00 92 1013.7
20260506031552 8 0 0.0 0.0 0.00 0.00 0.00 93 1013.8
20260506031048 7 0 0.0 0.0 0.00 0.00 0.00 92 1013.9
20260506030546 8 0 0.0 1.6 0.00 0.00 0.00 92 1013.8
20260506030051 8 0 0.0 1.6 0.00 0.00 0.00 92 1013.8
20260506025550 8 0 0.0 1.6 0.00 0.00 0.00 92 1013.9
20260506025307 8 0 0.0 0.0 0.00 0.00 0.00 91 1013.9
20260506023109 8 0 0.0 0.0 0.00 0.00 0.00 91 1013.6
20260506022549 8 0 0.0 0.0 0.00 0.00 0.00 90 1013.8
20260506022053 9 0 0.0 0.0 0.00 0.00 0.00 90 1013.8
20260506021552 9 0 0.0 1.6 0.00 0.00 0.00 91 1013.9
20260506021049 9 0 0.0 1.6 0.00 0.00 0.00 90 1013.6
20260506020701 10 0 0.0 0.0 0.00 0.00 0.00 90 1013.8
20260506015553 10 0 0.0 4.8 0.00 0.00 0.00 90 1013.9
20260506015051 10 0 0.0 4.8 0.00 0.00 0.00 91 1013.8
20260506014559 10 219 1.6 4.8 0.00 0.00 0.00 91 1013.8
20260506014051 10 0 0.0 0.0 0.00 0.00 0.00 90 1014.0
20260506013551 10 0 0.0 1.6 0.00 0.00 0.00 89 1014.0
20260506013056 10 0 0.0 1.6 0.00 0.00 0.00 88 1014.0
20260506012551 10 184 0.0 1.6 0.00 0.00 0.00 88 1014.0
20260506012051 10 183 0.0 1.6 0.00 0.00 0.00 87 1014.1
20260506011604 10 0 0.0 4.8 0.00 0.00 0.00 86 1014.1
20260506011051 10 212 0.0 6.4 0.00 0.00 0.00 86 1013.9
20260506010551 10 212 1.6 6.4 0.00 0.00 0.00 86 1014.0
20260506010055 10 212 3.2 6.4 0.00 0.00 0.00 85 1014.1
20260506005553 10 224 1.6 4.8 0.00 0.00 0.00 84 1014.1
20260506005055 10 287 0.0 4.8 0.00 0.00 0.00 86 1014.1
20260506004600 11 291 1.6 4.8 0.00 0.00 0.00 88 1014.1
20260506004052 11 306 0.0 3.2 0.00 0.00 0.00 89 1014.2
20260506003548 11 0 0.0 11.3 0.00 0.00 0.00 87 1014.2